Regional Weather Roundup
Issued by NWS

Home | Current Version | Previous Version | Graphics & Text | Print | Product List | Glossary On
Versions: 1 2 3 4 5 6 7 8 9 10 11 12 13 14 15 16 17 18 19 20 21 22 23 24 25 26 27 28 29 30 31 32 33 34 35 36 37 38 39 40 41 42 43 44 45 46 47 48 49 50
000
ASUS43 KLOT 262021
RWRIL

ILLINOIS REGIONAL WEATHER ROUNDUP
NATIONAL WEATHER SERVICE CHICAGO/ROMEOVILLE IL
300 PM CDT THU MAR 26 2015

NOTE: "FAIR" INDICATES FEW OR NO CLOUDS BELOW 12,000 FEET WITH NO
SIGNIFICANT WEATHER AND/OR OBSTRUCTIONS TO VISIBILITY.

* THESE STATIONS ARE NOT UNDER NWS QUALITY CONTROL. THEY ALSO MAY NOT
  REPORT WEATHER SUCH AS PRECIPITATION OR FOG.

ILZ001-002-007-009-015-016-024-262100-
NORTHWEST ILLINOIS

CITY           SKY/WX    TMP DP  RH WIND       PRES   REMARKS
MOLINE         SUNNY     46  23  40 NW15G26   30.02S
STERLING*      CLOUDY    45  25  45 N10G16    30.00S
SAVANNA*       MOSUNNY   45  21  39 NW16G22   30.00S
$$

ILZ003-004-008-010-011-017-018-262100-
NORTH CENTRAL ILLINOIS

CITY           SKY/WX    TMP DP  RH WIND       PRES   REMARKS
ROCKFORD       CLOUDY    39  21  48 N13       30.00F WCI  31
FREEPORT*      CLOUDY    37  23  57 NW14      30.01S WCI  29
ROCHELLE*      CLOUDY    38  25  59 NW13      29.99S WCI  30
DE KALB*       CLOUDY    37  24  59 NW14G21   29.98S WCI  28
PERU*          PTSUNNY   42  26  52 NW17      29.99F
$$

ILZ005-006-012>014-019>023-262100-
NORTHEAST ILLINOIS

CITY           SKY/WX    TMP DP  RH WIND       PRES   REMARKS
CHICAGO-OHARE  CLOUDY    40  23  50 NW15      29.94F
CHICAGO-MIDWAY PTSUNNY   44  23  43 NW15G22   29.94F
AURORA         CLOUDY    41  25  53 NW16G24   29.97S
LANSING*       PTSUNNY   44  21  40 NW12G17   29.93F
JOLIET*        CLOUDY    44  25  48 W15       29.96F
WAUKEGAN       CLOUDY    38  21  50 NW10G18   29.95R WCI  31
DUPAGE AIRPORT PTSUNNY   40  22  48 NW16      29.96S
KANKAKEE*      PTSUNNY   44  31  60 W16G22    29.96R
WHEELING       CLOUDY    40  23  50 NW10      29.97R
MORRIS*        PTSUNNY   42  27  55 NW12      29.96S
ROMEOVILLE*    PTSUNNY   43  23  45 NW15      29.96S
NORTHERLY ISL    N/A     39  25  57 E5          N/A
$$

LMZ740>746-262100-
SOUTHERN LAKE MICHIGAN

STATION/POSITION SKY/WX   TEMP    WIND        PRES    VSBY  WAVE
                          AIR SEA DIR/SP/G                  HT/PER
                          (F)     (DEG/KT/KT) (MB)    (MI)  (FT/S)
HARRISON CRIB              36      40/  7/  8   N/A
BURNHAM HARBOR             39      70/  4/  5   N/A
CALUMET HARBOR             37      50/  8/  9 1013.2F
BURNS HARBOR               38      40/  4/  5 1015.2F
MICHIGAN CITY              36     320/  4/  4   N/A
$$

ILZ025>027-034>036-040-047-049-050-058-095>099-262100-
WEST-CENTRAL ILLINOIS

CITY           SKY/WX    TMP DP  RH WIND       PRES   REMARKS
QUINCY         SUNNY     48  25  40 NW22      30.04F
GALESBURG*     MOSUNNY   46  24  42 W17       30.01F
MACOMB*        SUNNY     47  26  43 NW21G30   30.05F
JACKSONVILLE*  SUNNY     49  30  48 NW15G26   30.03F
PITTSFIELD*    SUNNY     48  28  46 NW12G20   30.05F
$$

ILZ028>032-037-038-041>044-048-051>054-059>061-262100-
CENTRAL ILLINOIS

CITY           SKY/WX    TMP DP  RH WIND       PRES   REMARKS
PONTIAC        PTSUNNY   44  31  58 NW16G23   29.98S
BLOOMINGTON    MOSUNNY   47  29  50 NW18      29.99F
DECATUR        CLOUDY    47  29  49 NW17G23   30.00F
PEORIA         SUNNY     48  24  39 NW10G24   30.01S
LACON*         MOSUNNY   45  25  46 NW14      29.99F
LINCOLN*       MOSUNNY   49  29  46 NW9G17    30.00F
SPRINGFIELD    MOSUNNY   48  29  47 W20       30.02F
TAYLORVILLE    CLOUDY    45  32  61 NW12G21   30.02S
$$

ILZ033-039-045-046-055>057-062-063-262100-
EAST-CENTRAL ILLINOIS

CITY           SKY/WX    TMP DP  RH WIND       PRES   REMARKS
CHAMPAIGN      CLOUDY    46  30  53 NW15      29.97F
DANVILLE*      CLOUDY    43  33  66 W10G18    29.93F
RANTOUL*       CLOUDY    47  33  58 NW16      29.97S
MATTOON        CLOUDY    44  33  65 NW18G25   29.98F
PARIS*         CLOUDY    43  35  71 NW12      29.98F
$$

ILZ079-100>102-262100-
SOUTHWEST ILLINOIS

CITY           SKY/WX    TMP DP  RH WIND       PRES   REMARKS
ALTON          SUNNY     46  27  46 NW14      30.04F
BELLEVILLE     PTSUNNY   47  33  57 NW13      30.03F
CAHOKIA*       MOSUNNY   48  33  56 NW10      30.05F
SPARTA*        CLOUDY    42  32  68 NW9       30.05S
$$

ILZ064>066-069>071-074>076-080>082-084>086-088>090-092>094-262100-
SOUTH-CENTRAL ILLINOIS

CITY           SKY/WX    TMP DP  RH WIND       PRES   REMARKS
CARBONDALE     CLOUDY    43  34  70 N9        30.04S
CAIRO*         CLOUDY    43  37  82 N14       30.02F
EFFINGHAM*     CLOUDY    43  31  63 W14       30.02S
MARION         CLOUDY    43  36  75 N12       30.04F
MT. VERNON     CLOUDY    45  32  61 NW8       30.03S
CENTRALIA*     CLOUDY    42  32  68 NW14      30.03S
SALEM*         CLOUDY    45  34  66 NW13      30.03S
METROPOLIS*    CLOUDY    42  41  95 N6        30.00F
$$

ILZ067-068-072-073-078-083-087-091-262100-
SOUTHEAST ILLINOIS

CITY           SKY/WX    TMP DP  RH WIND       PRES   REMARKS
LAWRENCEVILLE  CLOUDY    43  33  68 NW10      30.00R
FLORA*         CLOUDY    43  33  69 NW9       30.01F
FAIRFIELD*     CLOUDY    43  34  70 NW3       30.01S
HARRISBURG*    CLOUDY    42  36  77 NW6       30.04F
ROBINSON*      CLOUDY    43  34  71 NW12      30.01S
CARMI*         CLOUDY   N/A N/A N/A NW12      30.01F
$$

ABBREVIATIONS USED IN REMARKS
   TC - TEMPERATURE IN CELSIUS
  WCI - WIND CHILL INDEX
   HX - HEAT INDEX
  VSB - VISIBILITY
$$



USA.gov is the U.S. government's official web portal to all federal, state and local government web resources and services.